CHINASAT 11 (ZX 11)

Last updated on Jan. 26, 2020, 4:40 a.m. UTC

1 39157U 13020A   20024.91438434 -.00000298  00000-0  00000+0 0  9994
2 39157   0.0074 320.3915 0003085 353.5300 236.9081  1.00268220 24732
UTC
Height (km)
Latitude
Longitude
Inclination
Orbital Period
UTC large
Height (km)
Speed (km/s)
/
Latitude / Longitude
Inclination (degrees)
Orbital Period (minutes)
Azimuth
Elevation
Range (km)
Doppler Factor
iOS Compass Heading
iOS Angle

Next 30 passes for location: Hong Kong

Rise time Rise Azimuth (degrees) Set time Set Azimuth (degrees) Duration Max altitude (degrees)

No matching passes for this satellites